星链-2030 (STARLINK-2030 )

导读 | 豆包AI

STARLINK-2030是美国SpaceX公司星链星座的成员卫星,于2021年2月16日发射升空。作为全球最大低轨卫星互联网星座的组成部分,它承担着为传统网络覆盖薄弱地区提供高速宽带服务的任务,助力星链实现全球无缝网络覆盖,支撑消费级互联网接入、应急通信等多元应用场景,推动全球卫星互联网产业发展。

Basic Information
目录编号:
47647
目录名称:
STARLINK-2030
国际标识:
2021-012AD
轨道中心:
EARTH
卫星名称:
星链-2030
卫星全名:
星链-2030 (STARLINK-2030 )
卫星状态:
已陨落 最后检测时间 2025-07-04
发射日期:
2021-02-16 UTC
国别 :
美国 (US)
星等 :
--
Orbit Information
数据来源 国际轨道数据
星历时间: 2025-07-04T01:23:45+0800
轨道信息已过期325天
半长轴: 6529.236km
偏心率: 0.0012024
轨道倾角: 53.023°
近地点辐角 240.002°
升交点赤经 73.353°
平近点角 229.869°
近地点: 143.25km
远地点: 158.952km
周期: 87.509分钟
每日圈数: 16.455432
Detailed Information
固有亮度:
5
最大亮度:
2.5
卫星平台:
Starlink V1.0
覆盖范围:
全球
运营商:
太空探索技术公司
运营商所在国:
美国
制造商(研发单位):
太空探索技术公司
制造商所在国:
美国
使用方式:
暂无
Satellite Introduction
星链(Starlink)计划是由太空探索技术公司(SpaceX)提出的一个巨型低轨卫星互联网星座项目,计划在2019年至2024年间在太空搭建由约1.2万颗卫星组成的“星链”网络,其中1584颗将部署在地球上空550千米处的近地轨道,并从2020年开始工作。该卫星仍在工作。